Find Kosmos-2571 subsat

NORAD ID: 58428 Int'l Des: 2023-165 Owner: VVKOV Country: RU operational
LEOCIRCULAR

Current View

Loading 3D Globe...

About Kosmos-2571 subsat

Description loading...

Upcoming Passes

Passes for default location (London). Set your location on the main map for personalized predictions.

Altitude History

Loading altitude history...

Two-Line Element Set

1 58428U 23165D 26149.66481720 .00000019 00000-0 66781-4 0 9992
2 58428 67.1490 332.2416 0016329 325.5240 34.4784 13.97422929128244
Epoch: May 29, 2026 • Age: 21 hours

Current Status

Altitude 914.6 km
Velocity 7.39 km/s
Sub-Earth Point -1.09°S, 60.96°E
Launch Date Oct 27, 2023
Age 2.5 years
Type other

Technical Details

Classification Payload
Mass 10.00 kg
Dry Mass 10.00 kg
Total Mass 10.00 kg
Length 0.30 m
Diameter 0.20 m
Span 0.30 m
Shape Box
Manufacturer TSSKBP/ARSLO
Bus Type Unk
Phase Status In Orbit
Owner/State VVKOV/RU

Most Searched